Location: Houhaj�rvi
(61.2833°N, 23.0000°E)
Time: 07:59:41
(UTC+00:00)

Cosmos 1980 Rocket - Pass Details

Date: 27 February 2020
Orbit: 831 x 848 km, 71.0° (Epoch: 30 March)

Event Time Altitude Azimuth Distance (km) Brightness Sun altitude
Exits shadow 22:18:02 25° 33° (NNE) 1,617 4.0 -36.8°
Drops below altitude 10° 22:20:26 10° 42° (NE) 2,454 5.0 -36.9°
Sets 22:22:55 0° 47° (NE) 3,389 5.8 -36.9°
